EW8213 Weather Reports


time (UTC)temp
C
wind
direction
speed
KPH
gust
KPH
rain 1hr
cm
rain 24hr
cm
rain mn
cm
humidity
%
barometer
mb
20260505235517 17 0.0 0.0 0.00 0.00 0.00 66 1014.0
20260505234516 16 0.0 1.6 0.00 0.00 0.00 66 1014.0
20260505233516 16 0.0 4.8 0.00 0.00 0.00 65 1014.1
20260505232517 16 0.0 1.6 0.00 0.00 0.00 65 1014.2
20260505231537 17 0.0 1.6 0.00 0.00 0.00 65 1014.3
20260505230537 17 0.0 12.9 0.00 0.00 0.00 65 1014.2
20260505225516 17 0.0 4.8 0.00 0.00 0.00 65 1014.2
20260505224536 16 0.0 3.2 0.00 0.00 0.00 66 1014.3
20260505223516 16 0.0 0.0 0.00 0.00 0.00 66 1014.3
20260505222536 16 0.0 1.6 0.00 0.00 0.00 67 1014.4
20260505221516 16 135 1.6 6.4 0.00 0.00 0.00 67 1014.4
20260505220516 16 0.0 4.8 0.00 0.00 0.00 68 1014.5
20260505215516 16 0.0 1.6 0.00 0.00 0.00 69 1014.6
20260505214537 16 0.0 1.6 0.00 0.00 0.00 70 1014.6
20260505213516 16 0.0 1.6 0.00 0.00 0.00 72 1014.7
20260505212516 15 0.0 0.0 0.00 0.00 0.00 73 1014.8
20260505211516 15 0.0 1.6 0.00 0.00 0.00 73 1014.9
20260505210516 15 0.0 0.0 0.00 0.00 0.00 73 1014.7
20260505205516 15 0.0 0.0 0.00 0.00 0.00 73 1014.8
20260505204557 15 0.0 0.0 0.00 0.00 0.00 73 1014.8
20260505203516 15 0.0 0.0 0.00 0.00 0.00 74 1014.7
20260505202516 15 0.0 0.0 0.00 0.00 0.00 77 1014.8
20260505201516 15 0.0 0.0 0.00 0.00 0.00 79 1014.9
20260505200536 14 0.0 0.0 0.00 0.00 0.00 79 1015.0
20260505195556 14 0.0 0.0 0.00 0.00 0.00 78 1015.2
20260505194516 14 0.0 0.0 0.00 0.00 0.00 78 1015.2
20260505193516 14 0.0 0.0 0.00 0.00 0.00 78 1015.2
20260505192516 14 0.0 1.6 0.00 0.00 0.00 79 1015.2
20260505191516 14 0.0 0.0 0.00 0.00 0.00 81 1015.2
20260505190516 14 0.0 3.2 0.00 0.00 0.00 82 1015.1
20260505185516 13 0.0 4.8 0.00 0.00 0.00 83 1015.1
20260505184516 13 0.0 1.6 0.00 0.00 0.00 84 1015.0
20260505183556 13 0.0 0.0 0.00 0.00 0.00 85 1015.1
20260505182516 13 0.0 0.0 0.00 0.00 0.00 85 1015.2
20260505181516 13 0.0 0.0 0.00 0.00 0.00 83 1015.2
20260505180516 13 0.0 1.6 0.00 0.00 0.00 82 1015.1
20260505175516 13 0.0 3.2 0.00 0.00 0.00 80 1015.1
20260505174516 13 225 1.6 6.4 0.00 0.00 0.00 79 1014.9
20260505173516 13 0.0 0.0 0.00 0.00 0.00 78 1014.7
20260505172516 13 0.0 0.0 0.00 0.00 0.00 77 1014.6
20260505171516 13 0.0 0.0 0.00 0.00 0.00 77 1014.6
20260505170516 13 0.0 0.0 0.00 0.00 0.00 77 1014.5
20260505165536 13 0.0 0.0 0.00 0.00 0.00 77 1014.5
20260505164516 13 0.0 0.0 0.00 0.00 0.00 78 1014.4
20260505163535 13 0.0 0.0 0.00 0.00 0.00 78 1014.4
20260505162536 13 0.0 0.0 0.00 0.00 0.00 78 1014.3
20260505161515 13 0.0 0.0 0.00 0.00 0.00 79 1014.2
20260505160516 13 0.0 0.0 0.00 0.00 0.00 79 1014.2
20260505152518 12 0.0 0.0 0.00 0.00 0.00 82 1014.1
20260505151517 12 0.0 0.0 0.00 0.00 0.00 82 1014.0
20260505150517 12 0.0 0.0 0.00 0.00 0.00 82 1013.9
20260505140537 12 0.0 0.0 0.00 0.00 0.00 82 1013.6
20260505124537 12 0.0 0.0 0.00 0.00 0.00 80 1013.4
20260505123518 12 0.0 0.0 0.00 0.00 0.00 80 1013.3
20260505122518 12 0.0 0.0 0.00 0.00 0.00 80 1013.5
20260505121517 12 0.0 0.0 0.00 0.00 0.00 80 1013.5
20260505120518 12 0.0 0.0 0.00 0.00 0.00 80 1013.5
20260505115517 12 0.0 0.0 0.00 0.00 0.00 80 1013.6
20260505114517 12 0.0 0.0 0.00 0.00 0.00 79 1013.6
20260505113558 12 0.0 0.0 0.00 0.00 0.00 79 1013.5
20260505112517 12 0.0 0.0 0.00 0.00 0.00 79 1013.7
20260505111517 12 0.0 0.0 0.00 0.00 0.00 79 1013.5
20260505110517 12 0.0 0.0 0.00 0.00 0.00 79 1013.6
20260505101538 12 0.0 0.0 0.00 0.00 0.00 78 1013.6
20260505100517 12 0.0 0.0 0.00 0.00 0.00 78 1013.6
20260505095517 12 0.0 1.6 0.00 0.00 0.00 78 1013.6
20260505094517 12 0.0 1.6 0.00 0.00 0.00 78 1013.6
20260505093517 12 0.0 1.6 0.00 0.00 0.00 77 1013.6
20260505092517 12 0.0 1.6 0.00 0.00 0.00 77 1013.8
20260505091517 12 0.0 1.6 0.00 0.00 0.00 77 1013.8
20260505090517 12 0.0 0.0 0.00 0.00 0.00 77 1013.8
20260505085517 12 0.0 0.0 0.00 0.00 0.00 77 1013.9
20260505084517 12 0.0 9.7 0.00 0.00 0.00 77 1013.9
20260505083517 12 0.0 1.6 0.00 0.00 0.00 77 1014.0
20260505082537 12 0.0 3.2 0.00 0.00 0.00 76 1014.3
20260505081517 12 0.0 3.2 0.00 0.00 0.00 76 1014.3
20260505080517 12 113 1.6 9.7 0.00 0.00 0.00 74 1014.3
20260505075517 12 0.0 3.2 0.00 0.00 0.00 74 1014.4
20260505074517 12 90 1.6 8.0 0.00 0.00 0.00 74 1014.4
20260505073517 13 0.0 6.4 0.00 0.00 0.00 75 1014.2
20260505072517 13 0.0 4.8 0.00 0.00 0.00 75 1014.3
20260505071537 13 0.0 8.0 0.00 0.00 0.00 75 1014.1
20260505070517 13 203 1.6 8.0 0.00 0.00 0.00 75 1014.1
20260505065517 13 0.0 1.6 0.00 0.00 0.00 76 1013.9
20260505064517 13 0.0 1.6 0.00 0.00 0.00 76 1013.9
20260505063517 13 0.0 4.8 0.00 0.00 0.00 76 1013.9
20260505062517 13 0.0 8.0 0.00 0.00 0.00 75 1013.9
20260505061517 13 0.0 3.2 0.00 0.00 0.00 75 1013.8
20260505060517 13 0.0 8.0 0.00 0.00 0.00 75 1013.8
20260505055517 13 0.0 4.8 0.00 0.00 0.00 74 1013.7
20260505054517 13 0.0 3.2 0.00 0.00 0.00 74 1013.8
20260505053517 13 113 3.2 12.9 0.00 0.00 0.00 75 1014.0
20260505052537 13 158 1.6 9.7 0.00 0.00 0.00 75 1014.0
20260505051557 13 0.0 8.0 0.00 0.00 0.00 76 1014.2
20260505050517 13 23 1.6 9.7 0.00 0.00 0.00 76 1014.2
20260505041516 14 203 1.6 8.0 0.00 0.00 0.00 74 1013.6
20260505040538 14 0.0 4.8 0.00 0.00 0.00 73 1013.6
20260505035516 15 135 1.6 11.3 0.00 0.00 0.00 71 1013.5
20260505034517 15 0.0 9.7 0.00 0.00 0.00 68 1013.4
20260505033517 15 203 3.2 11.3 0.00 0.00 0.00 67 1013.2
20260505032516 15 0.0 4.8 0.00 0.00 0.00 69 1013.0
20260505031517 15 158 1.6 9.7 0.00 0.00 0.00 68 1012.9
20260505030537 15 0.0 9.7 0.00 0.00 0.00 66 1012.9
20260505025516 15 0.0 3.2 0.00 0.00 0.00 64 1012.9
20260505024516 15 0.0 3.2 0.00 0.00 0.00 62 1013.0
20260505023517 15 90 1.6 9.7 0.00 0.00 0.00 62 1012.9
20260505022516 15 158 1.6 9.7 0.00 0.00 0.00 64 1012.9
20260505021516 15 135 1.6 11.3 0.00 0.00 0.00 62 1012.8
20260505020516 16 225 1.6 12.9 0.00 0.00 0.00 61 1012.9
20260505015517 16 135 1.6 12.9 0.00 0.00 0.00 60 1012.7
20260505014517 16 158 1.6 14.5 0.00 0.00 0.00 59 1012.7
20260505013517 16 135 1.6 14.5 0.00 0.00 0.00 59 1012.8
20260505012517 16 113 3.2 20.9 0.00 0.00 0.00 58 1012.9
20260505011517 17 135 1.6 22.5 0.00 0.00 0.00 58 1013.1
20260505010516 17 180 3.2 14.5 0.00 0.00 0.00 58 1013.1
20260505005516 17 135 1.6 9.7 0.00 0.00 0.00 59 1013.0
20260505004517 16 113 1.6 11.3 0.00 0.00 0.00 59 1013.2
20260505003517 16 158 3.2 14.5 0.00 0.00 0.00 60 1013.3
20260505002516 16 203 1.6 17.7 0.00 0.00 0.00 60 1013.3
20260505001516 16 203 3.2 14.5 0.00 0.00 0.00 60 1013.2
20260505000516 16 158 3.2 14.5 0.00 0.00 0.00 60 1013.1